Flag for Faroe Islands Weather past 2 weeks in Tórshavn, Faroe Islands, Faroe Islands

Now
54 °F

Partly sunny.


Feels Like: 50 °F
Forecast: 54 / 57 °F
Wind: 12 mph from South

Location: Soervaag / Vagar

Current Time: Jul 29, 2014 at 3:53:18 PM

Latest Report: Jul 29, 2014 at 3:20 PM


Visibility: N/A

Pressure: 29.47 "Hg

Humidity: 100%

Dew point: 54 °F

Location of TórshavnLocation

Historic Weather in Tórshavn — Graph

°F

Tórshavn temperature yesterday

Maximum temperature yesterday: 57 °F (at 1:20 PM)
Minimum temperature yesterday: 52 °F (at 12:50 AM)
Average temperature yesterday: 55 °F

Past Weeks' High & Low Weather Summary

 TemperatureHumidityPressure
High64 °F (Jul 20, 8:50 AM)100% (Jul 14, 7:20 PM)30.30 "Hg (Jul 14, 7:20 PM)
Low50 °F (Jul 15, 1:50 AM)68% (Jul 18, 4:20 PM)29.50 "Hg (Jul 29, 1:50 PM)
Average55 °F93%30.00 "Hg
* Reported Jul 14 2:34 PM — Jul 29 2:50 PM, Tórshavn, Weather by CustomWeather, © 2014

Note: Actual official high and low records may vary slightly from our data, if they occured in-between our weather recording intervals... More about our weather records

Advertising

Tórshavn weather history for previous 24 hours

 ConditionsComfort  
Time TempWeatherWind HumidityBarometerVisibility
2:50 PM
Jul 29
54 °FPartly sunny.13 mph100%29.50 "Hg5 mi
2:20 PM54 °FPartly sunny.14 mph100%29.50 "Hg6 mi
1:50 PM54 °FSprinkles. Fog.14 mph100%29.50 "Hg2 mi
1:20 PM54 °FPartly sunny.14 mph94%29.53 "Hg5 mi
12:50 PM54 °FPartly sunny.13 mph94%29.53 "Hg4 mi
12:20 PM54 °FPartly sunny.14 mph100%29.56 "Hg6 mi
11:50 AM54 °FPartly sunny.12 mph94%29.56 "Hg5 mi
11:20 AM52 °FSprinkles. Partly sunny.14 mph100%29.56 "Hg4 mi
10:50 AM54 °FPartly sunny.13 mph94%29.59 "Hg6 mi
10:20 AM54 °FPartly sunny.15 mph94%29.59 "HgN/A
9:50 AM54 °FPartly sunny.14 mph100%29.59 "HgN/A
9:20 AM54 °FPartly sunny.13 mph100%29.59 "HgN/A
8:50 AM52 °FLow clouds.13 mph100%29.62 "HgN/A
8:20 AM52 °FSprinkles. Low clouds.14 mph100%29.62 "HgN/A
7:50 AM52 °FSprinkles. Partly sunny.12 mph100%29.62 "HgN/A
7:20 AM54 °FPartly sunny.13 mph94%29.65 "HgN/A
6:50 AM52 °FDrizzle. Low clouds.9 mph100%29.65 "HgN/A
6:20 AM52 °FLow clouds.10 mph100%29.65 "HgN/A
5:50 AM52 °FLow clouds.9 mph100%29.68 "Hg5 mi
5:20 AM52 °FLow clouds.10 mph100%29.68 "HgN/A
4:50 AM54 °FLow clouds.9 mph94%29.68 "HgN/A
4:20 AM54 °FLow clouds.10 mph94%29.68 "HgN/A
3:50 AM54 °FLow clouds.10 mph94%29.71 "HgN/A
3:20 AM54 °FLow clouds.8 mph94%29.71 "HgN/A
2:50 AM54 °FMostly cloudy.9 mph100%29.74 "HgN/A
2:20 AM54 °FPassing clouds.9 mph100%29.74 "HgN/A
1:50 AM54 °FFog.7 mph100%29.74 "Hg1 mi
1:20 AM54 °FLight rain. Fog.16 mph100%29.74 "Hg1 mi
12:50 AM54 °FSprinkles. Fog.15 mph100%29.77 "Hg1 mi
12:20 AM54 °FSprinkles. Partly sunny.16 mph100%29.77 "Hg1 mi
11:50 PM
Jul 28
54 °FSprinkles. Fog.15 mph100%29.77 "Hg2 mi
11:20 PM54 °FSprinkles. Fog.17 mph100%29.80 "Hg3 mi
10:50 PM54 °FSprinkles. Partly sunny.15 mph100%29.80 "Hg2 mi
10:20 PM54 °FSprinkles. Low clouds.15 mph100%29.83 "Hg4 mi
9:50 PM54 °FSprinkles. Low clouds.15 mph100%29.83 "HgN/A
9:20 PM54 °FDrizzle. Low clouds.10 mph100%29.86 "Hg4 mi
8:50 PM55 °FPartly sunny.14 mph94%29.86 "HgN/A
8:20 PM54 °FPartly sunny.13 mph100%29.86 "HgN/A
7:50 PM55 °FPartly sunny.12 mph94%29.89 "HgN/A
7:20 PM55 °FLow clouds.13 mph88%29.89 "HgN/A
6:50 PM55 °FPartly sunny.10 mph94%29.89 "HgN/A
6:20 PM55 °FPartly sunny.8 mph94%29.92 "HgN/A
5:50 PM55 °FPartly sunny.10 mph88%29.92 "HgN/A
5:20 PM55 °FLow clouds.8 mph94%29.92 "HgN/A
4:50 PM55 °FLow clouds.7 mph94%29.92 "HgN/A
4:20 PM55 °FLow clouds.7 mph94%29.92 "HgN/A
3:50 PM55 °FLow clouds.8 mph94%29.95 "Hg5 mi
3:20 PM57 °FLow clouds.6 mph88%29.95 "HgN/A
Weather by CustomWeather, © 2014

See weather overviewHow to use our weather pages